DECAYED
Showing default

FLOCK 4X 16, 51020 (Decayed)

Orbit data source: Space-Track

FLOCK 4X 16, 51020 was a payload satellite owned by Planet (US) in LEO that was launched on Thu, 13 Jan 2022 UTC via an FALCON 9 launch vehicle from the Air Force Eastern Test Range (AFETR). Payload-class satellites include a variety of spacecraft equipped with specific instruments for various scientific and technological missions. These include communications satellites like Starlink; space stations such as the ISS; scientific satellites like the Hubble; Earth observation satellites from companies like Planet Labs, Umbra, and HawkEye 360; GPS; miniature CubeSats for education and research; and military/defense satellites.

Not visible in the next 10 days
Identifier
51020, 2022-002AN
Orbit
Decayed
Last TLE update
8 months ago
Origin
Manufacturer
Planet
Mission
Decayed Commercial Imaging
Bus & Motor
CUBESAT 3U, Unknown motor
Mass
5.7 kg wet, 5.7 kg dry
Launch date (UTC)
2022-01-13 (3 years ago)
Launch vehicle
FALCON 9
Launch site
Air Force Eastern Test Range (AFETR)
Object type
Payload
Rocket body
Debris
Shape & HBR
Box + 2 Pan, 0.3 m
Radar Cross Section
0.108 m², Small (<0.1 m²)

Expand to show TLE details & history

TLE from 8 months ago
0 FLOCK 4X 16
1 51020U 22002AN  24291.22688389  .10603973  24536-5  26072-2 0  9991
2 51020  97.3564  12.0992 0010729 275.5924  84.4146 16.29125030154062
Epoch: 2024-10-17T05:26Z
TLE epoch observation values (Epoch: 2024-10-17T05:26:42.768Z)
Latitude
-0.00001°
Longitude
-95.79299°
Altitude
197.451 km
Speed
7.788 km/s
True Right ascension
00h 48m 23s
True Declination
0° 00' 00"
Sunlit
Object was in full shadow at epoch
Visualization orbit readout
Visualization observer readout
Orbital elements
Apogee altitude
198.761 km
Perigee altitude
184.663 km
Semi-major axis
6,569.849 km
Eccentricity
0.00107
Inclination
97.3564°
RAAN
12.0992°
Arg. of periapsis
275.5924°
True anomaly
Unknown
Mean anomaly
84.4146°
Eccentric anomaly
Unknown
Mean motion
4.07577 °/min
Orbital period
88.33 mins
BSTAR
0.0026072
Loading maneuver chart data...
Loading SW <> Apogee altitude chart data...

FLOCK 4X 16 Visibility

Observer location: undefined°, undefined°

This satellite is decayed
Span
Click to sort rows by Start time (UTC) header in descending order
Start Az.
Max El. time (UTC)
Max El. Az.
Max El.
End time (UTC)
End Az.
|